Location: Sungai Jaoh
(2.9167°N, 113.9167°E)
Time: 06:48:59
(UTC+00:00)

Envisat - Pass Details

Date: 29 September 2021
Orbit: 764 x 766 km, 98.2° (Epoch: 24 October)

Event Time Altitude Azimuth Distance (km) Brightness Sun altitude
Rises 21:41:18 0° 357° (N) 3,213 6.2 -8.4°
Reaches altitude 10° 21:43:44 10° 348° (NNW) 2,290 5.3 -7.8°
Maximum altitude 21:48:20 36° 283° (WNW) 1,188 3.5 -6.7°
Drops below altitude 10° 21:52:57 10° 217° (SW) 2,297 5.2 -5.5°
Sets 21:55:25 0° 208° (SSW) 3,224 6.0 -4.9°
